Weather History for Frederick, OK

Change the Weather History Date:

Wednesday, February 12, 2014

  Actual Average (KLTS) Record (KLTS)
Temperature  
Mean Temperature 36 °F -  
Max Temperature 50 °F 54 °F 52 °F (2014)
Min Temperature 21 °F 31 °F 17 °F (2014)
Degree Days  
Heating Degree Days 30    
Moisture  
Dew Point 25 °F    
Average Humidity 71    
Maximum Humidity 85    
Minimum Humidity 46    
Precipitation  
Precipitation 0.00 in - - ()
Sea Level Pressure  
Sea Level Pressure 30.12 in    
Wind  
Wind Speed 6 mph (WNW)    
Max Wind Speed 13 mph    
Max Gust Speed -    
Visibility 6 miles    
Events      
Averages and records for this station are not official NWS values.
T = Trace of Precipitation, MM = Missing Value Source: NWS Daily Summary

Daily Weather History Graph

Daily Weather History Graph

Search for Another Location

Airport:

Trip Planner

Search our weather history database for the weather conditions in past years. The results will help you decide how hot, cold, wet, or windy it might be!

Date:

Astronomy

Feb. 12, 2014 Rise Set
Actual Time 7:24 AM CST 6:16 PM CST
Civil Twilight 6:58 AM CST 6:42 PM CST
Nautical Twilight 6:28 AM CST 7:12 PM CST
Astronomical Twilight 5:59 AM CST 7:41 PM CST
Moon 4:33 PM CST (2/12) 5:39 AM CST (2/12)
Length of Visible Light 11h 44m
Length of Day
10h 52m
Waxing Gibbous, 95% of the Moon is Illuminated
Feb 12
Waxing Gibbous
Feb 14
Full
Feb 22
Last Quarter
Mar 1
New
Mar 8
First Quarter

Hourly Weather History & Observations

Time (CST) Temp. Windchill Dew Point Humidity Pressure Visibility Wind Dir Wind Speed Gust Speed Precip Events Conditions
12:53 AM 24.1 °F 17.0 °F 19.9 °F 84% 30.20 in 5.0 mi West 5.8 mph - N/A   Partly Cloudy
1:53 AM 23.0 °F 14.7 °F 19.0 °F 85% 30.20 in 5.0 mi West 6.9 mph - N/A   Clear
2:53 AM 24.1 °F 19.7 °F 19.0 °F 81% 30.18 in 5.0 mi West 3.5 mph - N/A   Haze
3:53 AM 23.0 °F 17.0 °F 19.0 °F 85% 30.17 in 5.0 mi West 4.6 mph - N/A   Clear
4:53 AM 23.0 °F 14.7 °F 19.0 °F 85% 30.18 in 6.0 mi WNW 6.9 mph - N/A   Clear
5:53 AM 23.0 °F 17.0 °F 18.0 °F 81% 30.18 in 6.0 mi WNW 4.6 mph - N/A   Haze
6:53 AM 24.1 °F 19.7 °F 18.0 °F 77% 30.18 in 6.0 mi West 3.5 mph - N/A   Haze
7:53 AM 21.9 °F 15.7 °F 18.0 °F 85% 30.19 in 4.0 mi WSW 4.6 mph - N/A   Clear
8:53 AM 28.0 °F 20.8 °F 23.0 °F 81% 30.20 in - West 6.9 mph - N/A   Clear
9:53 AM 32.0 °F 25.6 °F 26.1 °F 79% 30.19 in - WSW 6.9 mph - N/A   Clear
10:53 AM 36.0 °F 28.5 °F 27.0 °F 70% 30.19 in - West 10.4 mph - N/A   Clear
11:53 AM 39.0 °F 31.4 °F 27.0 °F 62% 30.17 in 10.0 mi NW 12.7 mph - N/A   Clear
12:53 PM 43.0 °F 37.7 °F 28.0 °F 56% 30.14 in 10.0 mi WNW 9.2 mph - N/A   Clear
1:53 PM 46.0 °F 41.0 °F 28.0 °F 50% 30.10 in - WNW 10.4 mph - N/A   Clear
2:53 PM 48.9 °F - 28.9 °F 46% 30.06 in - North 5.8 mph - N/A   Clear
3:53 PM 50.0 °F - 30.9 °F 48% 30.06 in - North 11.5 mph - N/A   Clear
4:53 PM 50.0 °F - 32.0 °F 50% 30.05 in - North 10.4 mph - N/A   Clear
5:53 PM 44.1 °F 39.0 °F 32.0 °F 63% 30.06 in - North 9.2 mph - N/A   Clear
6:53 PM 41.0 °F 36.4 °F 28.9 °F 62% 30.05 in - NNE 6.9 mph - N/A   Clear
7:53 PM 37.0 °F 32.4 °F 28.0 °F 70% 30.06 in - North 5.8 mph - N/A   Clear
8:53 PM 33.1 °F 26.9 °F 26.1 °F 75% 30.05 in - North 6.9 mph - N/A   Clear
9:53 PM 32.0 °F - 26.1 °F 79% 30.06 in - Calm Calm - N/A   Clear
10:53 PM 32.0 °F 27.5 °F 25.0 °F 75% 30.02 in - South 4.6 mph - N/A   Clear
11:53 PM 32.0 °F - 26.1 °F 79% 30.01 in - Calm Calm - N/A   Clear